THOR ABLESTAR DEB

Satellite information

Favourite Embed

Satellite Type and Status

DEBRISIN ORBIT

Key statistics

Satellite THOR ABLESTAR DEB at a glance.

Uptime

23322

Days in orbit

Revolutions

≈ 13.8

Per day

Orbit

LEO

Low Earth Orbit

Inclination

67.1

Latest

Satellite identification and parameters

Extended collection of information and parameters for THOR ABLESTAR DEB.

Object identification

Identified? True

Debris? True

Object name: THOR ABLESTAR DEB

International designator: 1961-015CD

Object number (NORAD): 252

Object ID (CCSDS): 252

Country: UNITED STATES OF AMERICA (US)

Current information (Y/N): Y

RCS size: SMALL

Orbital parameters

Period: 104.535 minutes

Inclination: 67.0785 deg

SMA: 7350.795 km

Apoapsis: 1008.433 km

Periapsis: 936.886 km

RAAN: 68.9336 deg

Eccentricy: 0.0048666

Argument of periapsis: 146.0859 deg

Mean anomaly: 26.2182 deg

Mean motion: 13.77530803 rev/day

Mean motion (dot): 0.00000304 rev/day2

B* drag term: 0.00037417 1/REarth

Two-line elements (TLE)

Creation date: May 6, 2025, 3:54 a.m.

Reference frame: TEME

Reference center: EARTH

Epoch: May 5, 2025, 2:48 p.m. UTC

TLE line 0: 0 THOR ABLESTAR DEB

TLE line 1: 1 00252U 61015CD 25125.61704265 .00000304 00000-0 37417-3 0 9990

TLE line 2: 2 00252 67.0785 68.9336 0048666 146.0859 26.2182 13.77530803195184

Live tracking on map

Real-time ground track for satellite THOR ABLESTAR DEB.

In-orbit conjunctions

A list of the most updated potential collisions computed for object THOR ABLESTAR DEB.

Target Orbit TCA Probability of collision Miss distance Type
COSMOS 1275 LEO 2025-04-02 03:59:34 0.0009987877 204.0 (m) PAYLOAD

Associated space launch

THOR ABLESTAR DEB was lifted into orbit during the mission ‘Thor DM-21 Ablestar | Transit 4A & Injun-1 & Solrad 3’, on board a Thor DM-21 Ablestar space rocket.

The launch took place on June 29, 1961, 4:23 a.m. from Space Launch Complex 17B.

For more information about the launch, click the button.

Launch to space Thor DM-21 Ablestar | Transit 4A & Injun-1 & Solrad 3
Thor DM-21 Ablestar | Transit 4A & Injun-1 & Solrad 3

Agency: N/A

Status: Launch Successful

Launch date: June 29, 1961, 4:23 a.m. UTC

Rocket: Thor DM-21 Ablestar

Launch pad: Space Launch Complex 17B

Location: Cape Canaveral SFS, FL, USA

...

Latest news about this satellite

There are no fresh news available about this satellite. Check back as we update our databases every day.


Newsletter sign-up

Weekly statistics, charts and insights to help you stay on top of the space industry.